Location: Unspecified
(40.7945°N, 111.1337°W)
Time: 12:31:00
(UTC-06:00)

Transit 4A - Visible Passes

Search period start: 07 August 2020 00:00
Search period end: 17 August 2020 00:00
Orbit: 865 x 980 km, 66.8° (Epoch: 07 August)

Date Brightness Start Highest point End Pass type
(mag) Time Alt. Az. Time Alt. Az. Time Alt. Az.
07 Aug 10.4 22:00:32 10° WNW 22:03:43 14° WSW 22:06:53 10° SW visible
11 Aug 10.5 20:50:38 10° WNW 20:54:55 19° WSW 20:59:12 10° SSW visible
12 Aug 10.8 21:01:42 10° W 21:03:54 12° W 21:06:06 10° WSW visible
